User: anonymous   Login
Location: Unspecified
(0.0000°N, 0.0000°E)
Time: 02:58:24
(UTC+00:00)
Language:

ONEWEB-0063 - Orbit

View from above orbital plane
View from above orbital plane
View from above satellite
View from above satellite

Ground track
Ground track

The orbit is defined by the following mean orbital elements,

1 45448U          26145.13233505 +.00000000 +00000-0 +44272-3 0 00000
2 45448  87.8917  25.6536 0001945  90.6683 269.4667 13.11413886    01
Epoch (UTC): 25 May 2026 03:10:33
Eccentricity: 0.0001945
inclination: 87.8917°
perigee height: 1216 km
apogee height: 1219 km
right ascension of ascending node: 25.6536°
argument of perigee: 90.6683°
revolutions per day: 13.11413886
mean anomaly at epoch: 269.4667°

The dashed part of the orbit path shows where the satellite is in the earth's shadow,  

DLR